This is the latest recevied weather packets stored in our database for station/object KD4WXI. If no packets are shown the sender has not sent any weather packets the latest 10 day(s).
| Time | Temp. | Humidity | Pressure | Rain* | Wind** | Luminosity | Snow |
|---|---|---|---|---|---|---|---|
| 1777995003 | 24.44° C | 47% | 1017.2 hPa | 0 mm | - | 604 W/m² | - |
| 1777994700 | 24.44° C | 48% | 1017.1 hPa | 0 mm | - | 607 W/m² | - |
| 1777994395 | 23.89° C | 51% | 1017.2 hPa | 0 mm | - | 626 W/m² | - |
| 1777994091 | 23.89° C | 51% | 1017.2 hPa | 0 mm | - | 626 W/m² | - |
| 1777993789 | 23.89° C | 47% | 1017.3 hPa | 0 mm | - | 627 W/m² | - |
| 1777993485 | 23.89° C | 50% | 1017.2 hPa | 0 mm | - | 627 W/m² | - |
| 1777993185 | 23.33° C | 52% | 1017.3 hPa | 0 mm | - | 612 W/m² | - |
| 1777992883 | 23.33° C | 51% | 1017.2 hPa | 0 mm | - | 602 W/m² | - |
| 1777992581 | 23.33° C | 52% | 1017.1 hPa | 0 mm | - | 581 W/m² | - |
| 1777992279 | 23.33° C | 54% | 1017.2 hPa | 0 mm | - | 573 W/m² | - |
| 1777991976 | 22.78° C | 53% | 1017 hPa | 0 mm | - | 549 W/m² | - |
| 1777991673 | 22.22° C | 52% | 1017.4 hPa | 0 mm | - | 522 W/m² | - |
| 1777991370 | 22.22° C | 54% | 1017.3 hPa | 0 mm | - | 506 W/m² | - |
| 1777991068 | 21.67° C | 54% | 1017.1 hPa | 0 mm | - | 485 W/m² | - |
| 1777990765 | 21.67° C | 55% | 1017.1 hPa | 0 mm | - | 493 W/m² | - |
| 1777990462 | 21.67° C | 55% | 1017.1 hPa | 0 mm | - | 439 W/m² | - |
| 1777989855 | 21.67° C | 56% | 1017.3 hPa | 0 mm | - | 456 W/m² | - |
| 1777989552 | 21.11° C | 59% | 1017.3 hPa | 0 mm | - | 459 W/m² | - |
| 1777989249 | 21.11° C | 57% | 1017 hPa | 0 mm | - | 440 W/m² | - |
| 1777988945 | 20.56° C | 57% | 1017 hPa | 0 mm | - | 428 W/m² | - |
| 1777988641 | 20.56° C | 60% | 1017.2 hPa | 0 mm | - | 405 W/m² | - |
| 1777988338 | 20.56° C | 61% | 1017.1 hPa | 0 mm | - | 398 W/m² | - |
| 1777988035 | 20° C | 60% | 1017.3 hPa | 0 mm | - | 384 W/m² | - |
| 1777987731 | 20° C | 61% | 1017.3 hPa | 0 mm | - | 367 W/m² | - |
| 1777987428 | 19.44° C | 63% | 1017.1 hPa | 0 mm | - | 351 W/m² | - |
* Rain latest hour (hover to see other rain measurements)
** Current wind speed in m/s (hover to see current wind gust speed)